DW0602 Weather Reports


Display with metric or nautical units.
time (UTC)temp
F
wind
direction
speed
MPH
gust
MPH
rain 1hr
in
rain 24hr
in
rain mn
in
humidity
%
barometer
mb
20260510051645 46 314 3.0 13.0 0.00 0.00 0.00 79 1022.6
20260510051532 46 344 4.0 14.0 0.00 0.00 0.00 78 1023.1
20260510051144 46 10 4.0 15.0 0.00 0.00 0.00 79 1022.9
20260510050644 46 333 4.0 15.0 0.00 0.00 0.00 78 1022.7
20260510050143 46 304 4.0 18.0 0.00 0.00 0.00 78 1022.6
20260510050030 46 257 4.0 19.0 0.00 0.00 0.00 77 1023.0
20260510045642 47 23 4.0 18.0 0.00 0.00 0.00 78 1022.5
20260510045142 47 281 4.0 14.0 0.00 0.00 0.00 77 1022.5
20260510044528 46 313 1.0 19.0 0.00 0.00 0.00 76 1023.0
20260510044142 47 288 7.0 23.0 0.00 0.00 0.00 76 1022.3
20260510043641 47 6 8.0 23.0 0.00 0.00 0.00 75 1021.9
20260510043028 47 297 9.0 27.0 0.00 0.00 0.00 74 1022.6
20260510042640 47 348 7.0 25.0 0.00 0.00 0.00 74 1022.0
20260510041640 47 269 7.0 27.0 0.00 0.00 0.00 73 1021.7
20260510041528 47 349 7.0 28.0 0.00 0.00 0.00 72 1022.2
20260510041139 48 354 7.0 27.0 0.00 0.00 0.00 72 1021.7
20260510040640 48 321 7.0 25.0 0.00 0.00 0.00 72 1021.8
20260510040140 48 53 7.0 25.0 0.00 0.00 0.00 71 1021.5
20260510040005 48 314 9.0 26.0 0.00 0.00 0.00 71 1022.1
20260510035140 48 342 7.0 24.0 0.00 0.00 0.00 70 1021.4
20260510034641 49 1 6.0 19.0 0.00 0.00 0.00 70 1021.2
20260510034503 48 297 6.0 24.0 0.00 0.00 0.00 70 1021.7
20260510034140 49 305 7.0 23.0 0.00 0.00 0.00 70 1021.0
20260510033639 49 311 7.0 23.0 0.00 0.00 0.00 69 1020.8
20260510033138 49 338 7.0 21.0 0.00 0.00 0.00 69 1020.4
20260510033003 49 292 4.0 23.0 0.00 0.00 0.00 68 1020.8
20260510032639 50 356 7.0 22.0 0.00 0.00 0.00 68 1020.2
20260510032141 51 331 7.0 22.0 0.00 0.00 0.00 66 1020.3
20260510031507 51 309 7.0 20.0 0.00 0.00 0.00 61 1020.4
20260510031134 52 348 7.0 19.0 0.00 0.00 0.00 59 1019.8
20260510030628 53 321 7.0 19.0 0.00 0.00 0.00 56 1019.7
20260510030123 54 324 7.0 21.0 0.00 0.00 0.00 54 1019.3
20260510030010 54 27 8.0 22.0 0.00 0.00 0.00 53 1019.8
20260510025616 55 359 8.0 21.0 0.00 0.00 0.00 51 1019.0
20260510025110 56 28 8.0 23.0 0.00 0.00 0.00 49 1018.8
20260510024604 57 347 7.0 23.0 0.00 0.00 0.00 47 1018.5
20260510024504 57 273 8.0 24.0 0.00 0.00 0.00 46 1018.9
20260510024059 59 328 5.0 21.0 0.00 0.00 0.00 44 1018.1
20260510023048 59 330 1.0 2.0 0.00 0.00 0.00 37 1017.1
20260510023004 58 326 0.0 2.0 0.00 0.00 0.00 36 1017.7
20260510022541 59 325 0.0 2.0 0.00 0.00 0.00 37 1016.8
20260510021528 60 282 1.0 3.0 0.00 0.00 0.00 38 1016.4
20260510021514 59 279 0.0 3.0 0.00 0.00 0.00 38 1017.1
20260510021023 60 277 1.0 3.0 0.00 0.00 0.00 35 1016.4
20260510020517 60 307 0.0 2.0 0.00 0.00 0.00 35 1016.3
20260510020007 60 340 0.0 1.0 0.00 0.00 0.00 34 1016.6
20260510015505 61 346 0.0 2.0 0.00 0.00 0.00 33 1015.9
20260510014958 61 346 0.0 2.0 0.00 0.00 0.00 34 1016.0
20260510014508 61 344 0.0 2.0 0.00 0.00 0.00 33 1016.4
20260510014453 61 352 0.0 2.0 0.00 0.00 0.00 34 1015.9
20260510013946 61 89 0.0 2.0 0.00 0.00 0.00 33 1015.8
20260510013440 61 89 1.0 3.0 0.00 0.00 0.00 32 1015.8
20260510013008 61 90 0.0 3.0 0.00 0.00 0.00 32 1016.1
20260510012934 61 86 1.0 3.0 0.00 0.00 0.00 32 1015.7
20260510012428 61 70 1.0 2.0 0.00 0.00 0.00 33 1015.5
20260510011923 61 56 1.0 4.0 0.00 0.00 0.00 33 1015.7
20260510011506 61 61 0.0 4.0 0.00 0.00 0.00 32 1016.0
20260510011416 62 56 1.0 4.0 0.00 0.00 0.00 33 1015.7
20260510010910 62 63 1.0 4.0 0.00 0.00 0.00 32 1015.7
20260510010404 62 65 1.0 5.0 0.00 0.00 0.00 31 1015.7
20260510010007 62 24 1.0 6.0 0.00 0.00 0.00 31 1016.1
20260510005858 63 45 0.0 6.0 0.00 0.00 0.00 31 1015.8
20260510004505 63 60 0.0 5.0 0.00 0.00 0.00 30 1015.9
20260510004340 63 44 2.0 5.0 0.00 0.00 0.00 31 1015.4
20260510003328 65 39 1.0 3.0 0.00 0.00 0.00 28 1015.2
20260510003020 64 40 0.0 3.0 0.00 0.00 0.00 26 1015.5
20260510002823 65 20 0.0 2.0 0.00 0.00 0.00 27 1015.1
20260510002316 65 336 1.0 3.0 0.00 0.00 0.00 26 1015.1
20260510001810 65 347 1.0 5.0 0.00 0.00 0.00 25 1014.9
20260510001507 65 339 0.0 5.0 0.00 0.00 0.00 24 1015.4
20260510001305 66 357 1.0 5.0 0.00 0.00 0.00 25 1014.9
20260510000759 66 359 1.0 4.0 0.00 0.00 0.00 25 1014.9
20260510000252 66 47 2.0 5.0 0.00 0.00 0.00 24 1014.8
20260510000010 65 285 1.0 7.0 0.00 0.00 0.00 22 1015.3
20260509235240 66 340 3.0 9.0 0.00 0.00 0.00 21 1014.6
20260509234734 65 260 4.0 9.0 0.00 0.00 0.00 22 1014.6
20260509234510 64 333 4.0 15.0 0.00 0.00 0.00 21 1015.2
20260509234228 65 351 4.0 14.0 0.00 0.00 0.00 21 1014.7
20260509233722 64 258 3.0 14.0 0.00 0.00 0.00 25 1015.1
20260509233216 64 42 4.0 8.0 0.00 0.00 0.00 29 1015.2
20260509233009 63 53 3.0 9.0 0.00 0.00 0.00 28 1015.6
20260509232710 64 56 4.0 8.0 0.00 0.00 0.00 28 1015.1
20260509231658 64 47 3.0 8.0 0.00 0.00 0.00 28 1014.9
20260509231510 63 61 3.0 9.0 0.00 0.00 0.00 28 1015.4
20260509230647 64 75 4.0 12.0 0.00 0.00 0.00 28 1015.1
20260509230140 64 32 6.0 13.0 0.00 0.00 0.00 30 1015.2
20260509230010 64 47 3.0 14.0 0.00 0.00 0.00 30 1015.6
20260509225634 64 90 7.0 13.0 0.00 0.00 0.00 30 1014.8
20260509225128 65 74 6.0 11.0 0.00 0.00 0.00 30 1014.8
20260509224623 65 43 7.0 12.0 0.00 0.00 0.00 28 1014.7
20260509224508 65 61 7.0 13.0 0.00 0.00 0.00 28 1015.3
20260509223610 66 84 7.0 13.0 0.00 0.00 0.00 28 1014.8
20260509223009 65 57 8.0 14.0 0.00 0.00 0.00 27 1015.0
20260509222558 66 72 6.0 10.0 0.00 0.00 0.00 28 1014.6
20260509222052 66 70 4.0 9.0 0.00 0.00 0.00 26 1014.3
20260509221546 66 41 2.0 10.0 0.00 0.00 0.00 29 1014.8
20260509221511 65 41 1.0 12.0 0.00 0.00 0.00 25 1015.4
20260509221040 66 29 4.0 11.0 0.00 0.00 0.00 25 1014.9
20260509220535 67 58 3.0 11.0 0.00 0.00 0.00 25 1014.4
20260509220022 67 72 2.0 6.0 0.00 0.00 0.00 22 1014.8
20260509215522 67 67 5.0 9.0 0.00 0.00 0.00 23 1014.0
20260509215017 68 60 4.0 10.0 0.00 0.00 0.00 22 1014.1
20260509214524 67 27 4.0 11.0 0.00 0.00 0.00 22 1014.7
20260509214004 68 338 2.0 7.0 0.00 0.00 0.00 21 1014.4
20260509213458 69 75 3.0 8.0 0.00 0.00 0.00 21 1014.4
20260509213026 68 347 3.0 9.0 0.00 0.00 0.00 19 1014.6
20260509212953 69 357 3.0 8.0 0.00 0.00 0.00 20 1014.2
20260509212447 69 53 2.0 7.0 0.00 0.00 0.00 20 1014.2
20260509211940 70 225 1.0 2.0 0.00 0.00 0.00 20 1014.2
20260509211527 69 57 0.0 3.0 0.00 0.00 0.00 18 1014.6
20260509211434 70 52 1.0 3.0 0.00 0.00 0.00 19 1014.2
20260509210929 70 21 1.0 3.0 0.00 0.00 0.00 19 1014.1
20260509210422 70 298 1.0 5.0 0.00 0.00 0.00 18 1014.2
20260509210030 70 66 1.0 5.0 0.00 0.00 0.00 19 1014.6
20260509205917 71 353 2.0 5.0 0.00 0.00 0.00 20 1014.2
20260509205410 71 354 2.0 7.0 0.00 0.00 0.00 19 1014.2
20260509204905 71 44 2.0 7.0 0.00 0.00 0.00 21 1014.2
20260509204524 71 281 3.0 8.0 0.00 0.00 0.00 19 1014.8
20260509204359 71 306 2.0 7.0 0.00 0.00 0.00 20 1014.3
20260509203853 71 344 2.0 8.0 0.00 0.00 0.00 19 1014.4
20260509203346 71 25 2.0 8.0 0.00 0.00 0.00 20 1014.3
20260509203026 71 15 2.0 8.0 0.00 0.00 0.00 19 1014.9
20260509202846 72 50 3.0 7.0 0.00 0.00 0.00 19 1014.3
20260509202342 71 297 3.0 9.0 0.00 0.00 0.00 20 1014.3
20260509201841 72 15 3.0 9.0 0.00 0.00 0.00 20 1014.4
20260509201528 71 355 3.0 10.0 0.00 0.00 0.00 20 1015.0
20260509201340 71 51 2.0 5.0 0.00 0.00 0.00 21 1014.4
20260509200841 70 328 2.0 7.0 0.00 0.00 0.00 22 1014.6
20260509200339 70 13 2.0 7.0 0.00 0.00 0.00 20 1014.8
20260509200029 70 360 1.0 7.0 0.00 0.00 0.00 21 1015.2
20260509195838 70 1 2.0 6.0 0.00 0.00 0.00 21 1014.8
20260509195338 71 357 2.0 8.0 0.00 0.00 0.00 19 1014.7
20260509194838 72 156 2.0 8.0 0.00 0.00 0.00 20 1014.8
20260509194523 72 11 3.0 7.0 0.00 0.00 0.00 19 1015.1
20260509193838 72 94 2.0 8.0 0.00 0.00 0.00 19 1014.7
20260509193338 71 335 1.0 8.0 0.00 0.00 0.00 23 1014.7
20260509193028 70 341 0.0 5.0 0.00 0.00 0.00 18 1015.1
20260509192838 71 347 1.0 5.0 0.00 0.00 0.00 18 1014.8
20260509192339 71 75 2.0 5.0 0.00 0.00 0.00 21 1014.8
20260509191840 71 20 2.0 6.0 0.00 0.00 0.00 20 1014.8
20260509191528 70 345 2.0 8.0 0.00 0.00 0.00 18 1015.1
20260509190829 70 6 3.0 7.0 0.00 0.00 0.00 23 1014.8
20260509190013 69 271 1.0 6.0 0.00 0.00 0.00 22 1015.4
20260509185832 70 77 3.0 6.0 0.00 0.00 0.00 21 1014.9
20260509185330 70 36 3.0 6.0 0.00 0.00 0.00 19 1014.9
20260509184505 70 259 4.0 10.0 0.00 0.00 0.00 18 1015.5
20260509183829 70 344 2.0 7.0 0.00 0.00 0.00 20 1015.1
20260509183330 69 282 2.0 5.0 0.00 0.00 0.00 21 1015.1
20260509183004 69 69 3.0 9.0 0.00 0.00 0.00 18 1015.7
20260509182831 70 56 3.0 8.0 0.00 0.00 0.00 18 1015.2
20260509182330 71 7 3.0 8.0 0.00 0.00 0.00 19 1015.2
20260509181826 72 53 2.0 8.0 0.00 0.00 0.00 20 1015.2
20260509181508 71 319 2.0 7.0 0.00 0.00 0.00 20 1015.8
20260509181326 72 41 2.0 6.0 0.00 0.00 0.00 23 1015.1
20260509180825 71 84 3.0 7.0 0.00 0.00 0.00 20 1015.2
20260509180326 71 236 3.0 10.0 0.00 0.00 0.00 18 1015.3
20260509180013 71 327 2.0 11.0 0.00 0.00 0.00 17 1015.8
20260509175327 71 310 4.0 9.0 0.00 0.00 0.00 18 1015.4
20260509174825 71 340 3.0 10.0 0.00 0.00 0.00 19 1015.4
20260509174510 71 57 2.0 11.0 0.00 0.00 0.00 18 1015.9
20260509173322 70 41 4.0 9.0 0.00 0.00 0.00 21 1015.5
20260509173003 70 321 5.0 10.0 0.00 0.00 0.00 18 1016.2
20260509172823 71 273 3.0 9.0 0.00 0.00 0.00 19 1015.5
20260509171822 70 354 4.0 12.0 0.00 0.00 0.00 19 1015.7
20260509171520 69 310 5.0 13.0 0.00 0.00 0.00 18 1016.3
20260509171322 70 307 3.0 12.0 0.00 0.00 0.00 19 1015.7
20260509170024 69 329 3.0 10.0 0.00 0.00 0.00 20 1016.1
20260509165323 69 329 4.0 11.0 0.00 0.00 0.00 20 1015.7
20260509164818 69 340 4.0 11.0 0.00 0.00 0.00 20 1015.5
20260509164515 68 333 5.0 12.0 0.00 0.00 0.00 19 1016.2
20260509164317 69 2 4.0 9.0 0.00 0.00 0.00 22 1015.7
20260509163819 68 359 5.0 10.0 0.00 0.00 0.00 23 1015.7
20260509163317 67 307 5.0 12.0 0.00 0.00 0.00 20 1015.7
20260509163014 67 290 5.0 13.0 0.00 0.00 0.00 20 1016.2
20260509162819 67 281 5.0 12.0 0.00 0.00 0.00 22 1015.8
20260509161505 65 337 3.0 10.0 0.00 0.00 0.00 22 1016.2
20260509161315 65 303 4.0 9.0 0.00 0.00 0.00 22 1015.7
20260509160815 65 319 4.0 11.0 0.00 0.00 0.00 23 1015.7
20260509160315 65 287 4.0 11.0 0.00 0.00 0.00 23 1015.7
20260509160007 65 33 5.0 12.0 0.00 0.00 0.00 23 1016.3
20260509155815 65 266 3.0 10.0 0.00 0.00 0.00 23 1015.7
20260509154516 64 267 2.0 11.0 0.00 0.00 0.00 25 1016.2
20260509154309 65 3 4.0 10.0 0.00 0.00 0.00 25 1015.7
20260509153809 65 284 4.0 10.0 0.00 0.00 0.00 25 1015.8
20260509153310 64 297 4.0 10.0 0.00 0.00 0.00 26 1015.7
20260509153016 64 355 4.0 10.0 0.00 0.00 0.00 26 1016.3
20260509152810 64 345 4.0 9.0 0.00 0.00 0.00 26 1015.8
20260509152309 64 321 3.0 10.0 0.00 0.00 0.00 27 1015.8
20260509151807 63 304 4.0 11.0 0.00 0.00 0.00 27 1015.8
20260509151516 63 283 4.0 12.0 0.00 0.00 0.00 26 1016.2
20260509150807 64 325 3.0 10.0 0.00 0.00 0.00 28 1015.8
20260509150304 63 283 4.0 8.0 0.00 0.00 0.00 32 1015.8
20260509150015 62 336 3.0 14.0 0.00 0.00 0.00 30 1016.2
20260509145804 62 269 3.0 13.0 0.00 0.00 0.00 33 1015.8
20260509144803 60 333 2.0 8.0 0.00 0.00 0.00 34 1015.9
20260509144516 59 269 1.0 5.0 0.00 0.00 0.00 36 1016.4
20260509144305 59 341 1.0 5.0 0.00 0.00 0.00 37 1015.9
20260509143804 58 292 1.0 5.0 0.00 0.00 0.00 37 1015.9
20260509143304 58 270 1.0 5.0 0.00 0.00 0.00 41 1016.2
20260509143016 57 19 1.0 5.0 0.00 0.00 0.00 38 1016.5
20260509142804 57 320 1.0 5.0 0.00 0.00 0.00 40 1016.0
20260509142258 57 331 1.0 4.0 0.00 0.00 0.00 40 1016.0
20260509141751 57 293 1.0 4.0 0.00 0.00 0.00 41 1016.0
20260509141521 56 309 0.0 4.0 0.00 0.00 0.00 42 1016.3
20260509141246 56 316 1.0 4.0 0.00 0.00 0.00 42 1016.0
20260509140741 56 281 1.0 4.0 0.00 0.00 0.00 42 1015.9
20260509140018 56 279 0.0 3.0 0.00 0.00 0.00 42 1016.3
20260509135733 56 284 1.0 3.0 0.00 0.00 0.00 42 1015.8
20260509135222 56 323 1.0 3.0 0.00 0.00 0.00 43 1015.9
20260509134716 56 260 1.0 3.0 0.00 0.00 0.00 45 1015.8
20260509134512 55 277 0.0 3.0 0.00 0.00 0.00 45 1016.1
20260509134211 55 294 0.0 3.0 0.00 0.00 0.00 47 1015.8
20260509133705 55 313 0.0 4.0 0.00 0.00 0.00 49 1015.7
20260509133158 55 285 0.0 4.0 0.00 0.00 0.00 51 1015.8
20260509133016 54 281 1.0 4.0 0.00 0.00 0.00 52 1016.2
20260509132652 54 347 0.0 2.0 0.00 0.00 0.00 58 1015.8
20260509132146 52 358 0.0 2.0 0.00 0.00 0.00 59 1015.9
20260509131640 51 359 0.0 2.0 0.00 0.00 0.00 66 1015.7
20260509131524 50 355 0.0 2.0 0.00 0.00 0.00 68 1016.1
20260509131134 49 33 0.0 2.0 0.00 0.00 0.00 70 1015.7
20260509130628 48 32 0.0 1.0 0.00 0.00 0.00 75 1015.7
20260509130122 47 1 0.0 0.0 0.00 0.00 0.00 75 1015.5
20260509130019 46 5 0.0 0.0 0.00 0.00 0.00 74 1015.9
20260509125616 46 1 0.0 2.0 0.00 0.00 0.00 73 1015.4
20260509125106 45 1 0.0 2.0 0.00 0.00 0.00 72 1015.4
20260509124600 44 340 0.0 2.0 0.00 0.00 0.00 73 1015.4
20260509124524 44 321 0.0 2.0 0.00 0.00 0.00 74 1015.8
20260509124101 43 17 0.0 2.0 0.00 0.00 0.00 76 1015.3
20260509123058 42 338 0.0 4.0 0.00 0.00 0.00 77 1015.3
20260509123011 41 338 0.0 1.0 0.00 0.00 0.00 77 1015.6
20260509122559 41 345 0.0 1.0 0.00 0.00 0.00 79 1015.3
20260509122056 40 345 0.0 1.0 0.00 0.00 0.00 78 1015.2
20260509121554 40 345 0.0 0.0 0.00 0.00 0.00 78 1015.2
20260509121524 39 338 0.0 0.0 0.00 0.00 0.00 77 1015.7
20260509121052 40 345 0.0 0.0 0.00 0.00 0.00 77 1015.2
20260509120550 40 345 0.0 3.0 0.00 0.00 0.00 77 1015.1
20260509120048 40 345 0.0 3.0 0.00 0.00 0.00 77 1015.1
20260509120023 40 338 0.0 3.0 0.00 0.00 0.00 77 1015.5
20260509115545 40 331 0.0 0.0 0.00 0.00 0.00 77 1014.9
20260509114527 40 325 0.0 0.0 0.00 0.00 0.00 76 1015.3
20260509114045 40 331 0.0 0.0 0.00 0.00 0.00 77 1014.8
20260509113024 40 325 0.0 1.0 0.00 0.00 0.00 75 1015.2
20260509112537 41 331 0.0 1.0 0.00 0.00 0.00 76 1014.9
20260509111538 41 330 0.0 0.0 0.00 0.00 0.00 73 1015.1
20260509111512 41 325 0.0 1.0 0.00 0.00 0.00 73 1015.6
20260509111036 42 330 0.0 1.0 0.00 0.00 0.00 74 1015.1
20260509110536 42 330 0.0 1.0 0.00 0.00 0.00 73 1015.1
20260509110032 42 331 0.0 2.0 0.00 0.00 0.00 71 1014.9
20260509110016 42 325 0.0 2.0 0.00 0.00 0.00 71 1015.5
20260509105526 42 331 0.0 2.0 0.00 0.00 0.00 73 1015.2
20260509105020 42 346 0.0 1.0 0.00 0.00 0.00 71 1015.2
20260509104522 42 340 0.0 3.0 0.00 0.00 0.00 70 1015.8
20260509104014 43 346 2.0 4.0 0.00 0.00 0.00 70 1015.2
20260509103514 43 309 1.0 4.0 0.00 0.00 0.00 72 1015.2
20260509103024 42 319 0.0 3.0 0.00 0.00 0.00 70 1015.6
20260509103013 42 324 1.0 3.0 0.00 0.00 0.00 71 1015.1
20260509102512 43 324 1.0 3.0 0.00 0.00 0.00 70 1015.1
20260509102011 43 325 0.0 2.0 0.00 0.00 0.00 70 1015.1
20260509101534 44 314 0.0 2.0 0.00 0.00 0.00 68 1015.6
20260509101513 44 319 0.0 2.0 0.00 0.00 0.00 68 1015.1
20260509101012 44 319 1.0 3.0 0.00 0.00 0.00 67 1015.2
20260509100022 44 314 0.0 2.0 0.00 0.00 0.00 67 1015.8
20260509100006 45 319 0.0 2.0 0.00 0.00 0.00 67 1015.2
20260509095505 45 319 0.0 2.0 0.00 0.00 0.00 67 1015.3
20260509095002 46 319 1.0 2.0 0.00 0.00 0.00 65 1015.2
20260509094521 45 314 1.0 3.0 0.00 0.00 0.00 65 1015.7
20260509094500 46 319 1.0 3.0 0.00 0.00 0.00 66 1015.2
20260509093958 46 0 1.0 3.0 0.00 0.00 0.00 66 1015.2
20260509093457 46 135 0.0 3.0 0.00 0.00 0.00 66 1015.2
20260509093024 45 137 0.0 5.0 0.00 0.00 0.00 65 1015.5
20260509092954 46 135 1.0 4.0 0.00 0.00 0.00 66 1015.2
20260509092452 46 150 2.0 4.0 0.00 0.00 0.00 66 1015.3
20260509091949 45 248 2.0 4.0 0.00 0.00 0.00 67 1015.4
20260509091526 45 298 2.0 4.0 0.00 0.00 0.00 66 1015.7
20260509091448 45 308 0.0 4.0 0.00 0.00 0.00 67 1015.4
20260509090448 47 330 1.0 3.0 0.00 0.00 0.00 64 1015.4
20260509090026 47 322 2.0 3.0 0.00 0.00 0.00 63 1015.8
20260509085948 47 326 1.0 3.0 0.00 0.00 0.00 63 1015.4
20260509085441 48 86 1.0 2.0 0.00 0.00 0.00 62 1015.4
20260509084517 47 97 0.0 4.0 0.00 0.00 0.00 61 1015.9
20260509083937 48 102 2.0 4.0 0.00 0.00 0.00 62 1015.5
20260509083021 47 83 1.0 7.0 0.00 0.00 0.00 62 1015.9
20260509082938 48 79 2.0 6.0 0.00 0.00 0.00 63 1015.7
20260509081530 47 80 0.0 2.0 0.00 0.00 0.00 63 1016.2
20260509081435 47 76 0.0 2.0 0.00 0.00 0.00 63 1015.8
20260509080935 48 76 0.0 2.0 0.00 0.00 0.00 63 1015.9
20260509080436 48 76 0.0 2.0 0.00 0.00 0.00 63 1015.8
20260509080028 47 80 0.0 2.0 0.00 0.00 0.00 62 1016.2
20260509075936 48 76 0.0 2.0 0.00 0.00 0.00 62 1015.9
20260509075436 48 75 0.0 2.0 0.00 0.00 0.00 62 1015.8
20260509074935 48 70 0.0 3.0 0.00 0.00 0.00 62 1015.9
20260509074528 48 111 0.0 4.0 0.00 0.00 0.00 61 1016.2
20260509073016 49 84 1.0 5.0 0.00 0.00 0.00 60 1016.3
20260509072934 49 87 2.0 5.0 0.00 0.00 0.00 61 1015.9
20260509072434 49 122 1.0 4.0 0.00 0.00 0.00 61 1016.2
20260509071522 48 138 0.0 4.0 0.00 0.00 0.00 61 1016.7
20260509071422 49 136 1.0 3.0 0.00 0.00 0.00 62 1016.3
20260509070916 49 136 1.0 3.0 0.00 0.00 0.00 61 1016.4
20260509070410 49 126 1.0 3.0 0.00 0.00 0.00 61 1016.4
20260509070005 49 134 0.0 2.0 0.00 0.00 0.00 60 1016.8
20260509065903 49 117 0.0 2.0 0.00 0.00 0.00 61 1016.4
20260509065358 49 96 0.0 1.0 0.00 0.00 0.00 60 1016.5
20260509064852 49 96 0.0 4.0 0.00 0.00 0.00 60 1016.5
20260509064510 49 100 0.0 4.0 0.00 0.00 0.00 60 1017.0
20260509064346 50 96 1.0 4.0 0.00 0.00 0.00 60 1016.5
20260509063840 50 106 1.0 4.0 0.00 0.00 0.00 60 1016.5
20260509063335 50 111 2.0 4.0 0.00 0.00 0.00 60 1016.6
20260509063017 49 125 1.0 4.0 0.00 0.00 0.00 60 1017.1
20260509062828 50 105 2.0 4.0 0.00 0.00 0.00 60 1016.6
20260509062322 50 104 2.0 5.0 0.00 0.00 0.00 61 1016.9
20260509061817 49 111 2.0 5.0 0.00 0.00 0.00 61 1016.8
20260509061502 49 107 2.0 6.0 0.00 0.00 0.00 60 1017.3
20260509061310 49 120 1.0 5.0 0.00 0.00 0.00 61 1016.9
20260509060803 49 115 1.0 5.0 0.00 0.00 0.00 62 1017.0
20260509060257 48 147 1.0 3.0 0.00 0.00 0.00 63 1017.1
20260509060002 47 153 1.0 3.0 0.00 0.00 0.00 63 1017.4
20260509055751 47 160 1.0 3.0 0.00 0.00 0.00 64 1017.1
20260509055245 47 126 0.0 2.0 0.00 0.00 0.00 66 1017.1
20260509054738 47 144 0.0 1.0 0.00 0.00 0.00 66 1017.3
20260509054506 46 186 0.0 1.0 0.00 0.00 0.00 66 1017.7
20260509054233 47 186 0.0 1.0 0.00 0.00 0.00 67 1017.3
20260509053728 47 186 0.0 0.0 0.00 0.00 0.00 67 1017.4
20260509053220 48 186 0.0 0.0 0.00 0.00 0.00 65 1017.3
20260509053014 48 186 0.0 0.0 0.00 0.00 0.00 64 1017.7
20260509052209 49 186 0.0 0.0 0.00 0.00 0.00 64 1017.4